DW9447 Weather Reports


Display with metric or nautical units.
time (UTC)temp
F
wind
direction
speed
MPH
gust
MPH
rain 1hr
in
rain 24hr
in
rain mn
in
humidity
%
barometer
mb
20260504202336 85 219 4.0 9.0 0.00 0.01 0.00 34 1012.4
20260504201836 85 240 2.0 7.0 0.00 0.01 0.00 33 1012.5
20260504201336 85 207 2.0 7.0 0.00 0.01 0.00 33 1012.6
20260504200838 85 216 2.0 6.0 0.00 0.01 0.00 35 1012.8
20260504200336 85 248 2.0 6.0 0.00 0.01 0.00 36 1012.8
20260504194835 84 213 3.0 7.0 0.00 0.01 0.00 35 1013.1
20260504193832 84 47 2.0 9.0 0.00 0.01 0.00 34 1013.1
20260504193332 84 205 2.0 6.0 0.00 0.01 0.00 34 1013.2
20260504192832 83 347 2.0 6.0 0.00 0.01 0.00 37 1013.2
20260504192331 83 189 2.0 6.0 0.00 0.01 0.00 36 1013.3
20260504191832 83 222 2.0 6.0 0.00 0.01 0.00 35 1013.3
20260504191332 83 335 2.0 6.0 0.00 0.01 0.00 35 1013.3
20260504190832 83 201 2.0 6.0 0.00 0.01 0.00 35 1013.4
20260504190327 83 162 3.0 6.0 0.00 0.01 0.00 38 1013.4
20260504185328 84 214 3.0 7.0 0.00 0.01 0.00 36 1013.5
20260504184327 83 94 2.0 9.0 0.00 0.01 0.00 41 1013.5
20260504183827 83 262 2.0 9.0 0.00 0.02 0.00 39 1013.6
20260504182827 82 246 3.0 9.0 0.00 0.02 0.00 40 1013.7
20260504182324 82 207 4.0 9.0 0.00 0.02 0.00 40 1013.8
20260504181821 81 286 4.0 9.0 0.00 0.02 0.00 41 1013.7
20260504181321 81 245 3.0 9.0 0.00 0.02 0.00 39 1013.9
20260504180820 81 231 2.0 6.0 0.00 0.02 0.00 39 1014.0
20260504180323 81 198 3.0 8.0 0.00 0.02 0.00 40 1014.0
20260504175822 80 210 4.0 8.0 0.00 0.02 0.00 40 1014.1
20260504175318 81 252 4.0 8.0 0.00 0.02 0.00 39 1014.1
20260504174319 81 252 3.0 8.0 0.00 0.02 0.00 39 1014.2
20260504173816 81 236 2.0 7.0 0.00 0.02 0.00 41 1014.2
20260504173314 80 290 2.0 7.0 0.00 0.02 0.00 44 1014.2
20260504172311 80 249 4.0 9.0 0.00 0.02 0.00 43 1014.4
20260504171811 80 248 4.0 8.0 0.00 0.02 0.00 43 1014.5
20260504171308 80 237 4.0 9.0 0.00 0.02 0.00 42 1014.6
20260504170808 80 214 4.0 9.0 0.00 0.02 0.00 44 1014.6
20260504170308 79 208 4.0 8.0 0.00 0.02 0.00 44 1014.7
20260504160258 76 264 4.0 7.0 0.00 0.02 0.00 48 1015.7
20260504151148 74 258 2.0 6.0 0.00 0.02 0.00 53 1015.8
20260504150636 73 207 3.0 6.0 0.00 0.02 0.00 53 1015.8
20260504150130 72 217 4.0 9.0 0.00 0.02 0.00 52 1015.9
20260504141111 70 228 2.0 4.0 0.00 0.02 0.00 59 1016.3
20260504140614 69 217 2.0 4.0 0.00 0.02 0.00 58 1016.2
20260504140111 69 239 1.0 4.0 0.00 0.02 0.00 59 1016.3
20260504100531 47 261 0.0 0.0 0.00 0.02 0.00 86 1015.6
20260504081526 49 221 0.0 0.0 0.00 0.02 0.00 83 1015.4
20260504081023 49 221 0.0 0.0 0.00 0.02 0.00 84 1015.4
20260504080519 49 221 0.0 0.0 0.00 0.02 0.00 83 1015.4
20260504045318 51 221 0.0 0.0 0.01 0.03 0.03 76 1017.0
20260504044811 52 221 0.0 0.0 0.01 0.03 0.03 75 1016.9
20260504044305 52 221 0.0 0.0 0.01 0.03 0.03 74 1017.0
20260504043755 52 221 0.0 0.0 0.01 0.03 0.03 74 1017.0
20260504042743 52 221 0.0 0.0 0.01 0.03 0.03 73 1017.2
20260504041727 53 221 0.0 0.0 0.01 0.03 0.03 74 1017.2
20260504040711 53 221 0.0 0.0 0.00 0.02 0.02 73 1017.2
20260504040205 53 221 0.0 1.0 0.00 0.02 0.02 73 1017.2
20260504035700 53 221 0.0 1.0 0.00 0.02 0.02 73 1017.3
20260504035154 53 221 0.0 0.0 0.00 0.02 0.02 73 1017.4
20260504034653 54 221 0.0 0.0 0.00 0.02 0.02 72 1017.3
20260504034150 54 221 0.0 0.0 0.00 0.02 0.02 71 1017.3
20260504033649 54 221 0.0 0.0 0.00 0.02 0.02 69 1017.3
20260504033159 54 221 0.0 0.0 0.00 0.02 0.02 69 1017.3
20260504032644 54 221 0.0 0.0 0.00 0.02 0.02 69 1017.4
20260504032143 55 221 0.0 0.0 0.00 0.02 0.02 67 1017.3
20260504031642 55 221 0.0 0.0 0.00 0.02 0.02 67 1017.4
20260504031142 55 221 0.0 0.0 0.00 0.02 0.02 67 1017.4
20260504030643 55 221 0.0 0.0 0.00 0.02 0.02 65 1017.3
20260504030146 56 221 0.0 0.0 0.00 0.02 0.02 65 1017.4
20260504025641 56 221 0.0 0.0 0.00 0.02 0.02 65 1017.4
20260504024641 56 221 0.0 0.0 0.00 0.02 0.02 64 1017.4
20260504024138 57 221 0.0 0.0 0.00 0.02 0.02 64 1017.4
20260504023635 57 221 0.0 0.0 0.00 0.02 0.02 63 1017.5
20260504023137 57 221 0.0 0.0 0.00 0.02 0.02 63 1017.6
20260504022636 58 221 0.0 0.0 0.00 0.02 0.02 62 1017.5
20260504022137 58 222 0.0 0.0 0.00 0.02 0.02 62 1017.7
20260504021637 58 222 0.0 0.0 0.00 0.02 0.02 60 1017.7
20260504021134 59 222 0.0 0.0 0.00 0.02 0.02 60 1017.5
20260504020635 59 222 0.0 0.0 0.00 0.02 0.02 58 1017.5
20260504020134 60 222 0.0 0.0 0.00 0.02 0.02 58 1017.3
20260504015634 60 222 0.0 0.0 0.00 0.02 0.02 58 1017.3
20260504015132 60 222 0.0 0.0 0.00 0.02 0.02 57 1017.3
20260504014630 61 222 0.0 0.0 0.00 0.02 0.02 56 1017.2
20260504014133 61 221 0.0 0.0 0.00 0.02 0.02 55 1017.1
20260504013631 61 221 0.0 0.0 0.00 0.02 0.02 56 1017.0
20260504013129 62 221 0.0 0.0 0.00 0.02 0.02 54 1017.0
20260504012628 62 221 0.0 0.0 0.00 0.02 0.02 55 1017.0
20260504012128 63 221 0.0 0.0 0.00 0.02 0.02 54 1017.0
20260504011628 63 221 0.0 0.0 0.00 0.02 0.02 52 1016.9
20260504011126 63 221 0.0 0.0 0.00 0.02 0.02 52 1016.8
20260504010624 64 221 0.0 0.0 0.00 0.02 0.02 51 1016.8
20260504010124 64 221 0.0 0.0 0.00 0.02 0.02 49 1016.8
20260504005624 65 221 0.0 0.0 0.00 0.02 0.02 48 1016.6
20260504005122 65 221 0.0 0.0 0.00 0.02 0.02 45 1016.7
20260504004625 66 221 0.0 0.0 0.00 0.02 0.02 45 1016.6
20260504003620 67 221 0.0 0.0 0.00 0.02 0.02 44 1016.6
20260504003118 67 221 0.0 0.0 0.00 0.02 0.02 44 1016.5
20260504002116 67 223 0.0 0.0 0.00 0.02 0.02 43 1016.6
20260504001616 68 223 0.0 1.0 0.00 0.02 0.02 42 1016.7
20260504001116 68 223 0.0 1.0 0.00 0.02 0.02 42 1016.7
20260504000616 68 223 0.0 3.0 0.00 0.02 0.02 42 1016.8
20260504000114 68 223 1.0 3.0 0.00 0.02 0.02 43 1016.9
20260503235612 68 229 1.0 3.0 0.00 0.02 0.02 41 1016.9
20260503235111 69 231 1.0 3.0 0.00 0.02 0.02 40 1016.9
20260503234612 69 234 1.0 3.0 0.00 0.02 0.02 40 1016.9
20260503234110 69 240 1.0 3.0 0.00 0.02 0.02 39 1017.0
20260503233610 69 225 1.0 2.0 0.00 0.02 0.02 40 1017.0
20260503233110 69 221 2.0 4.0 0.00 0.02 0.02 38 1017.1
20260503232610 70 243 2.0 4.0 0.00 0.02 0.02 37 1017.1
20260503231110 70 221 2.0 4.0 0.00 0.02 0.02 37 1017.2
20260503230611 71 232 3.0 6.0 0.00 0.02 0.02 35 1017.2
20260503230111 71 214 3.0 6.0 0.00 0.03 0.02 35 1017.3
20260503225611 72 205 3.0 6.0 0.00 0.03 0.02 32 1017.3
20260503225111 72 215 2.0 5.0 0.00 0.03 0.02 32 1017.4
20260503224611 72 280 2.0 3.0 0.00 0.03 0.02 34 1017.4
20260503224112 72 250 2.0 6.0 0.00 0.03 0.02 33 1017.4
20260503223611 72 283 3.0 8.0 0.00 0.03 0.02 32 1017.5
20260503223106 73 234 3.0 8.0 0.00 0.03 0.02 32 1017.5
20260503222607 73 153 3.0 10.0 0.00 0.03 0.02 32 1017.4
20260503222107 73 228 3.0 10.0 0.00 0.03 0.02 32 1017.5
20260503221607 73 200 2.0 4.0 0.00 0.03 0.02 32 1017.5
20260503221107 73 278 2.0 6.0 0.00 0.03 0.02 32 1017.6
20260503220607 73 300 2.0 6.0 0.00 0.03 0.02 31 1017.6
20260503220107 73 314 2.0 7.0 0.00 0.03 0.02 33 1017.7
20260503215102 73 209 3.0 7.0 0.00 0.03 0.02 30 1017.7
20260503214103 74 279 3.0 7.0 0.00 0.03 0.02 32 1017.9
20260503213603 74 299 3.0 10.0 0.00 0.03 0.02 31 1017.9
20260503213103 74 270 2.0 10.0 0.00 0.03 0.02 31 1018.0
20260503212104 74 233 2.0 6.0 0.00 0.03 0.02 31 1018.2
20260503211603 74 233 1.0 4.0 0.00 0.03 0.02 32 1018.3
20260503211053 73 285 3.0 6.0 0.00 0.03 0.02 32 1018.3
20260503210545 74 255 4.0 8.0 0.00 0.03 0.02 31 1018.3
20260503210041 74 258 2.0 8.0 0.00 0.03 0.02 31 1018.3
20260503205531 74 262 3.0 7.0 0.00 0.03 0.02 31 1018.4
20260503205024 74 210 4.0 7.0 0.00 0.03 0.02 30 1018.5
20260503204518 74 327 3.0 7.0 0.00 0.03 0.02 31 1018.6
20260503204008 74 257 2.0 7.0 0.00 0.03 0.02 32 1018.5
20260503203502 73 50 2.0 5.0 0.00 0.03 0.02 31 1018.6